Location: Norderney
(53.7000°N, 7.1500°E)
Time: 09:28:00
(UTC+02:00)

X-37B - Pass Details

Date: 30 June 2021
Orbit: 383 x 392 km, 45.0° (Epoch: 01 July)

Event Time Altitude Azimuth Distance (km) Brightness Sun altitude
Rises 23:43:38 0° 255° (WSW) 2,258 4.6 -9.5°
Reaches altitude 10° 23:46:56 10° 218° (SW) 1,402 3.1 -9.7°
Maximum altitude 23:47:53 11° 200° (SSW) 1,339 2.9 -9.8°
Enters shadow 23:48:26 11° 190° (S) 1,358 2.8 -9.8°
